"datetime","# probes","# resolvers","can_ipv6","can_ipv6_prbs","can_tcp","can_tcp_prbs","can_tcp6","can_tcp6_prbs","does_ecs","does_ecs_prbs","does_flagday","does_flagday_prbs","does_rov4","does_rov4_prbs","does_rov6","does_rov6_prbs","does_qnamemin","doesnt_qnamemin","does_qnamemin_prbs","doesnt_qnamemin_prbs","does_nxdomain","doesnt_nxdomain","does_nxdomain_prbs","doesnt_nxdomain_prbs","has_ta_19036","hasnt_ta_19036","has_ta_19036_prbs","hasnt_ta_19036_prbs","has_ta_20326","hasnt_ta_20326","has_ta_20326_prbs","hasnt_ta_20326_prbs","can_rsamd5","cannot_rsamd5","broken_rsamd5","can_rsamd5_prbs","cannot_rsamd5_prbs","broken_rsamd5_prbs","can_dsa","cannot_dsa","broken_dsa","can_dsa_prbs","cannot_dsa_prbs","broken_dsa_prbs","can_rsasha1","cannot_rsasha1","broken_rsasha1","can_rsasha1_prbs","cannot_rsasha1_prbs","broken_rsasha1_prbs","can_dsansec3","cannot_dsansec3","broken_dsansec3","can_dsansec3_prbs","cannot_dsansec3_prbs","broken_dsansec3_prbs","can_rsansec3","cannot_rsansec3","broken_rsansec3","can_rsansec3_prbs","cannot_rsansec3_prbs","broken_rsansec3_prbs","can_rsasha256","cannot_rsasha256","broken_rsasha256","can_rsasha256_prbs","cannot_rsasha256_prbs","broken_rsasha256_prbs","can_rsasha512","cannot_rsasha512","broken_rsasha512","can_rsasha512_prbs","cannot_rsasha512_prbs","broken_rsasha512_prbs","can_eccgost","cannot_eccgost","broken_eccgost","can_eccgost_prbs","cannot_eccgost_prbs","broken_eccgost_prbs","can_ecdsa256","cannot_ecdsa256","broken_ecdsa256","can_ecdsa256_prbs","cannot_ecdsa256_prbs","broken_ecdsa256_prbs","can_ecdsa384","cannot_ecdsa384","broken_ecdsa384","can_ecdsa384_prbs","cannot_ecdsa384_prbs","broken_ecdsa384_prbs","can_ed25519","cannot_ed25519","broken_ed25519","can_ed25519_prbs","cannot_ed25519_prbs","broken_ed25519_prbs","can_ed448","cannot_ed448","broken_ed448","can_ed448_prbs","cannot_ed448_prbs","broken_ed448_prbs","can_gost","cannot_gost","broken_gost","can_gost_prbs","cannot_gost_prbs","broken_gost_prbs","can_sha384","cannot_sha384","broken_sha384","can_sha384_prbs","cannot_sha384_prbs","broken_sha384_prbs","is_internal","is_forwarding","is_external","is_internal_prbs","is_forwarding_prbs","is_external_prbs"
2019-01-28T23:59:55Z,52,63,57,51,62,52,56,50,0,7,63,52,0,0,0,0,29,33,20,40,0,61,0,51,0,2,0,2,2,0,2,0,26,35,2,33,26,7,27,32,4,35,24,3,60,1,2,51,2,2,31,29,3,36,22,2,61,0,2,52,2,2,60,1,2,51,2,2,60,2,1,51,2,1,2,60,1,4,51,1,60,1,2,51,2,2,60,2,1,51,2,1,31,31,1,22,38,1,0,62,1,0,52,1,1,58,4,6,50,3,60,2,1,51,2,1,31,16,15,38,13,13
2019-01-29T23:59:56Z,148,257,249,146,256,148,246,143,0,16,257,148,0,0,0,0,32,224,24,134,0,249,0,141,0,3,0,4,3,0,4,0,210,45,2,122,39,12,212,41,4,124,42,3,245,10,2,143,11,2,211,43,3,123,39,2,247,9,1,143,10,2,248,8,1,144,10,1,247,9,1,143,10,1,2,254,1,4,147,1,252,4,1,146,10,1,250,5,2,145,10,2,36,219,2,31,130,2,0,255,2,0,148,2,2,248,7,11,143,5,246,10,1,143,11,1,219,22,15,129,21,21
2019-01-30T23:59:59Z,240,395,386,238,394,240,383,236,97,80,395,240,0,0,0,0,32,362,26,224,1,385,1,231,0,5,0,9,5,0,10,0,248,73,74,152,72,57,248,144,3,154,110,2,360,34,1,218,35,1,250,142,3,156,107,2,357,36,2,216,36,2,358,36,1,216,36,1,359,35,1,217,36,1,2,392,1,6,239,1,358,36,1,216,37,1,357,37,1,216,38,1,105,289,1,76,190,1,0,394,1,0,240,1,72,316,7,55,205,6,358,36,1,216,38,1,254,57,83,160,61,60
2019-01-31T23:59:59Z,248,423,416,247,422,248,412,244,122,88,423,248,0,0,0,0,33,389,26,232,2,412,1,239,0,3,0,8,3,0,9,0,251,96,76,153,78,58,251,168,4,154,116,3,367,55,1,220,41,1,249,171,3,152,117,2,366,56,1,219,42,1,365,57,1,218,42,1,365,57,1,218,42,1,2,420,1,6,247,1,366,56,1,219,44,1,364,57,2,218,44,2,113,308,2,80,194,2,1,421,1,1,248,1,77,339,7,59,208,6,365,57,1,218,44,1,256,69,97,160,68,61
2019-02-01T23:59:59Z,188,313,306,187,311,187,302,184,18,32,313,188,0,0,0,0,33,279,26,172,1,302,1,179,0,2,0,4,3,0,6,0,240,53,20,139,49,28,242,67,4,142,62,3,298,13,2,180,16,2,249,59,5,148,55,4,303,8,2,184,12,2,303,8,2,184,12,2,300,10,3,182,13,3,3,308,2,6,186,2,300,11,2,181,15,2,300,11,2,181,15,2,55,256,2,47,156,2,0,311,2,0,188,2,20,284,9,27,169,8,297,13,3,179,17,3,252,34,26,150,34,30
2019-02-02T23:59:59Z,187,317,310,186,316,187,308,184,22,32,317,187,0,0,0,0,32,284,25,172,0,308,0,179,0,3,0,5,3,0,6,0,242,52,23,140,45,28,243,71,3,142,62,2,303,13,1,179,14,1,248,66,3,147,58,2,305,11,1,181,12,1,305,11,1,181,12,1,305,11,1,181,12,1,4,312,1,6,185,1,308,8,1,183,13,1,307,8,2,183,13,2,56,259,2,46,156,2,0,316,1,0,187,1,24,288,5,28,168,5,301,15,1,179,15,1,252,36,28,149,35,29
2019-02-03T23:59:59Z,186,311,304,185,310,186,301,182,19,30,311,186,0,0,0,0,31,279,26,170,0,302,0,178,0,3,0,5,3,0,5,0,245,47,19,143,42,25,249,59,3,147,55,2,299,11,1,179,14,1,250,58,3,147,55,2,300,10,1,180,13,1,299,11,1,179,13,1,300,10,1,180,13,1,4,306,1,6,184,1,299,11,1,179,14,1,299,11,1,179,14,1,52,258,1,45,155,1,0,310,1,0,186,1,20,283,8,26,167,6,299,11,1,180,14,1,251,34,25,149,34,28
2019-02-04T23:59:59Z,186,315,307,184,314,186,305,183,19,31,315,186,0,0,0,0,33,281,26,171,0,306,0,178,0,5,0,6,5,0,7,0,248,47,20,144,42,26,250,61,4,147,57,3,307,6,2,182,10,2,251,61,3,148,55,2,306,8,1,181,10,1,306,8,1,181,10,1,307,7,1,182,10,1,3,311,1,6,184,1,304,10,1,180,12,1,305,9,1,181,12,1,57,257,1,47,152,1,0,314,1,0,186,1,23,285,7,28,165,6,306,7,2,182,12,2,256,34,24,151,32,28
2019-02-05T23:59:59Z,190,318,309,188,317,190,305,185,20,33,318,190,0,0,0,0,33,284,26,175,0,309,0,182,0,6,0,7,5,0,6,0,248,50,20,144,46,28,253,62,3,148,59,2,305,12,1,183,16,2,251,64,3,147,60,2,309,7,2,187,15,2,309,7,2,186,14,2,310,6,2,187,14,2,4,312,2,7,188,2,307,9,2,185,16,2,308,9,1,185,15,1,58,259,1,49,158,1,0,317,1,0,190,1,23,287,8,30,170,5,306,11,1,184,17,1,256,37,24,152,35,29
2019-02-06T23:59:59Z,194,323,314,192,322,194,311,190,24,35,323,194,0,0,0,0,32,290,26,179,0,314,0,186,0,5,0,6,5,0,7,0,247,52,24,144,47,30,253,67,3,150,61,2,309,12,2,187,16,2,252,68,3,149,61,2,312,10,1,188,15,1,313,9,1,189,15,1,313,9,1,189,15,1,3,319,1,6,192,1,310,12,1,188,16,1,311,11,1,189,16,1,60,262,1,52,160,1,0,322,1,0,194,1,26,290,7,31,173,6,308,14,1,186,18,1,258,35,29,155,35,31
2019-02-07T23:59:59Z,189,320,311,187,318,189,308,185,20,32,320,189,0,0,0,0,36,283,27,171,0,311,0,181,0,5,0,6,5,0,7,0,247,53,20,143,46,28,249,68,3,147,61,2,308,11,1,184,12,1,252,65,3,149,56,2,309,10,1,185,12,1,310,8,2,186,12,2,310,9,1,186,12,1,3,316,1,6,187,1,309,10,1,185,13,1,308,11,1,184,13,1,55,264,1,47,158,1,0,319,1,0,189,1,22,292,6,29,170,5,305,14,1,183,14,1,257,38,24,151,36,28
2019-02-08T23:59:59Z,191,321,313,189,320,191,310,186,21,32,321,191,0,0,0,0,34,287,25,175,0,313,0,183,0,4,0,5,4,0,6,0,245,54,22,142,47,28,246,73,2,145,64,1,309,12,0,184,15,0,245,74,2,143,64,1,311,10,0,186,14,0,311,10,0,186,14,0,310,11,0,185,14,0,2,319,0,5,190,0,310,11,0,185,15,0,310,11,0,185,15,0,60,261,0,49,158,0,0,321,0,0,191,0,24,292,5,29,172,4,307,13,1,184,17,1,258,37,26,153,34,30
2019-02-09T23:59:59Z,192,324,316,190,323,192,314,188,20,32,324,192,0,0,0,0,32,292,26,176,0,316,0,184,0,5,0,6,5,0,7,0,254,51,19,145,45,26,257,65,2,149,60,1,314,10,0,186,13,0,257,65,2,149,59,1,316,8,0,188,12,0,316,8,0,188,12,0,313,11,0,186,13,0,2,322,0,5,191,0,313,11,0,186,15,0,313,11,0,186,15,0,58,266,0,49,158,0,0,324,0,0,192,0,23,293,8,29,171,6,313,11,0,187,15,0,262,37,25,153,35,29
2019-02-10T23:59:59Z,192,320,311,190,318,191,307,187,19,31,320,192,0,0,0,0,34,285,26,175,0,310,0,183,0,4,0,5,4,0,6,0,246,54,20,143,48,27,251,65,4,149,60,3,308,10,2,185,14,2,248,68,4,146,61,3,308,10,2,185,14,2,308,10,2,185,14,2,308,10,2,185,14,2,3,315,2,5,190,2,308,10,2,185,17,2,308,10,2,185,16,2,58,260,2,49,159,2,0,318,2,0,191,2,20,291,9,26,174,7,307,11,2,184,16,2,258,36,25,155,34,30
2019-02-11T23:59:59Z,193,323,314,191,322,193,312,189,22,34,323,193,0,0,0,0,31,291,24,178,0,315,0,186,0,4,0,5,4,0,6,0,248,53,22,143,46,30,253,67,3,149,61,2,312,10,1,188,13,2,250,70,3,146,62,2,314,8,1,190,12,1,313,9,1,189,13,1,313,9,1,189,12,1,2,320,1,5,192,1,311,11,1,188,14,1,312,10,1,189,14,1,57,265,1,51,158,1,0,322,1,0,193,1,24,291,8,31,171,6,311,11,1,187,15,1,259,36,27,153,35,31
2019-02-12T23:59:59Z,193,320,310,191,318,193,307,188,21,34,320,193,0,0,0,0,35,283,28,175,0,310,0,185,0,4,0,6,4,0,6,0,243,56,21,142,50,28,247,69,4,147,64,3,308,9,3,188,13,3,251,65,4,149,61,3,310,8,2,189,12,2,308,10,2,187,13,2,310,8,2,189,12,2,2,316,2,6,191,2,307,11,2,187,15,2,307,11,2,187,15,2,55,263,2,47,161,2,0,318,2,0,193,2,21,291,8,29,173,6,306,12,2,186,15,2,256,37,25,154,36,29
2019-02-13T23:59:59Z,194,324,315,192,323,194,312,190,22,34,324,194,0,0,0,0,35,288,28,176,0,315,0,186,0,4,0,5,4,0,6,0,250,52,22,145,49,29,253,68,3,148,64,2,315,8,1,190,14,1,252,68,4,148,61,3,314,9,1,190,13,1,314,9,1,190,13,1,313,10,1,189,13,1,3,320,1,5,193,1,313,10,1,189,14,1,314,9,1,190,14,1,58,265,1,50,160,1,0,323,1,0,194,1,22,295,7,28,175,6,314,9,1,190,15,1,260,37,26,154,36,30
2019-02-14T23:59:59Z,195,326,317,193,325,195,315,191,24,38,326,195,0,0,0,0,33,292,26,179,0,317,0,187,0,4,0,5,4,0,6,0,249,53,24,145,49,31,253,69,4,151,65,3,316,8,2,191,14,2,254,69,3,152,64,2,317,8,1,192,13,1,317,8,1,192,13,2,316,9,1,191,13,1,2,323,1,5,194,1,316,9,1,191,14,1,316,9,1,191,14,1,61,264,1,53,158,1,0,325,1,0,195,1,25,294,7,31,173,6,314,11,1,189,15,1,259,39,27,153,36,32
2019-02-15T23:59:58Z,190,319,309,187,318,190,307,185,18,31,319,190,0,0,0,0,34,284,27,173,0,310,0,182,0,4,0,5,5,0,7,0,249,53,17,145,48,25,253,63,3,150,59,2,308,10,1,184,15,1,254,62,3,150,57,2,309,9,1,185,14,1,308,10,1,184,15,1,310,8,1,186,14,1,2,316,1,5,189,1,309,9,1,185,16,1,309,9,1,185,16,1,54,264,1,48,160,1,0,318,1,0,190,1,19,294,6,26,176,5,305,13,1,182,19,1,258,35,25,154,34,29
2019-02-16T23:59:59Z,189,317,306,186,315,189,304,184,15,30,317,189,0,0,0,0,31,285,26,173,0,308,0,181,0,5,0,6,5,0,6,0,247,54,16,142,49,25,250,63,4,146,60,3,306,9,2,184,14,2,253,61,3,148,58,2,304,11,2,183,14,2,303,12,2,182,15,2,303,13,1,182,14,1,4,312,1,6,188,1,305,10,2,183,15,2,306,10,1,184,14,1,52,264,1,47,158,1,0,316,1,0,189,1,16,293,8,24,172,7,301,14,2,180,17,2,257,40,19,151,37,26
2019-02-17T23:59:59Z,196,330,319,193,328,196,316,190,22,34,330,196,0,0,0,0,34,295,27,179,0,320,0,187,0,4,0,5,4,0,6,0,250,57,23,144,49,30,252,75,3,146,66,2,317,12,1,190,16,1,256,70,4,150,63,3,320,9,1,192,13,1,320,9,1,192,13,1,319,10,1,191,13,1,2,327,1,5,195,1,319,10,1,192,15,1,318,11,1,191,15,1,58,271,1,52,162,1,0,329,1,0,196,1,23,299,8,29,176,6,317,12,1,190,16,1,261,43,25,154,38,30
2019-02-18T23:59:59Z,191,319,308,188,317,191,305,185,18,32,319,191,0,0,0,0,31,287,25,177,0,309,0,182,0,4,0,5,4,0,6,0,250,52,17,145,49,25,255,61,3,150,60,2,307,10,2,185,14,2,258,58,3,152,58,2,309,9,1,186,15,1,307,10,2,185,14,2,308,10,1,186,15,1,4,314,1,6,190,1,307,10,2,185,16,2,306,12,1,184,16,1,50,268,1,47,162,1,0,317,2,0,191,2,17,293,9,25,173,7,306,12,1,184,16,1,260,35,23,155,33,29
2019-02-19T23:59:59Z,196,327,316,193,326,196,313,190,20,34,327,196,0,0,0,0,30,296,24,182,0,317,0,187,0,4,0,5,4,0,6,0,251,58,18,145,49,27,255,69,3,150,63,2,312,14,1,188,16,1,256,68,3,151,62,2,313,12,2,189,15,2,312,14,1,188,15,1,313,13,1,189,15,1,4,322,1,6,195,1,314,11,2,190,15,3,313,13,1,189,15,1,56,270,1,50,162,1,0,326,1,0,196,1,20,297,10,28,175,8,315,10,2,190,15,2,262,42,22,156,38,28
2019-02-20T23:59:59Z,191,324,311,187,321,191,309,185,19,31,324,191,0,0,0,0,33,288,28,175,0,312,0,182,0,4,0,5,4,0,5,0,248,56,18,143,49,26,254,65,3,148,61,2,308,13,1,184,14,1,250,69,3,145,62,2,309,11,2,185,14,2,308,12,2,184,14,2,308,13,1,184,14,1,4,317,1,6,190,1,308,12,2,184,16,2,309,11,2,185,16,2,53,267,2,48,161,2,1,320,1,1,191,1,18,296,8,26,174,6,308,13,1,184,16,1,255,44,22,150,39,27
2019-02-21T23:59:59Z,193,328,316,190,327,193,313,187,17,31,328,193,0,0,0,0,35,290,29,176,2,316,1,184,0,4,0,5,4,0,6,0,251,59,18,145,52,25,256,66,6,150,62,4,310,15,3,184,16,2,256,66,6,150,60,4,313,11,4,187,14,3,311,13,4,185,14,3,311,14,3,185,14,2,3,322,3,6,192,2,311,13,4,185,16,3,310,15,3,184,16,2,56,269,3,46,161,2,0,325,3,0,193,2,16,301,11,23,177,8,310,15,3,184,16,2,262,41,24,152,37,28
2019-02-22T23:59:59Z,191,321,311,188,319,191,307,185,12,27,321,191,0,0,0,0,32,288,25,177,0,311,0,182,0,5,0,6,5,0,7,0,250,58,13,146,49,22,255,63,3,149,59,2,309,11,1,184,13,1,253,64,4,149,58,3,309,11,1,184,13,1,308,12,1,183,13,1,310,10,1,185,13,1,3,317,1,5,190,1,307,13,1,183,15,1,307,13,1,183,15,1,54,266,1,46,158,1,0,320,1,0,191,1,14,298,9,22,175,6,308,12,1,184,13,1,258,42,20,153,36,25
2019-02-23T23:59:58Z,195,333,323,192,332,195,321,190,21,33,333,195,0,0,0,0,36,296,28,179,0,322,0,186,0,4,0,5,4,0,5,0,251,62,20,143,52,27,257,73,3,148,64,2,318,14,1,187,15,1,252,78,3,144,65,2,317,15,1,186,16,1,318,14,1,187,16,1,318,14,1,187,16,1,3,329,1,5,194,1,318,14,1,187,17,1,318,14,1,187,17,1,62,270,1,51,160,1,0,332,1,0,195,1,20,304,9,26,177,6,319,13,1,187,16,1,263,40,29,154,37,30
2019-02-24T23:59:59Z,198,332,322,195,329,197,319,193,17,32,332,198,0,0,0,0,38,293,29,180,0,322,0,189,0,4,0,5,4,0,6,0,251,65,16,144,54,26,256,73,3,149,68,2,318,13,1,190,14,1,259,70,3,151,64,2,320,10,2,193,14,2,320,10,2,192,13,2,320,11,1,192,13,1,3,328,1,6,197,1,317,13,2,189,16,2,320,11,1,191,16,1,62,269,1,52,160,1,0,331,1,0,198,1,17,306,9,26,180,6,320,11,1,191,15,1,263,41,27,156,37,31
2019-02-25T23:59:58Z,201,341,331,198,340,201,327,194,17,30,341,201,0,0,0,0,43,297,33,180,0,330,0,192,0,6,0,7,6,0,8,0,258,66,17,148,55,25,263,75,3,153,66,2,328,12,1,194,14,1,266,72,3,154,65,3,328,11,2,194,13,2,328,11,2,194,13,2,328,12,1,194,13,1,5,335,1,7,199,1,329,10,2,195,14,2,328,11,2,193,14,2,66,274,1,53,163,1,1,339,1,1,200,1,18,313,10,26,183,7,331,9,1,196,12,1,266,44,30,155,41,31
2019-02-26T23:59:59Z,205,343,333,202,342,205,330,199,17,34,343,205,0,0,0,0,44,298,35,184,0,333,0,196,0,7,0,8,7,0,8,0,261,66,16,152,57,27,266,73,4,155,69,3,332,9,2,199,14,2,262,77,4,153,67,4,330,12,1,197,14,1,330,12,1,197,15,1,329,13,1,196,15,1,4,338,1,6,203,1,331,11,1,198,14,1,331,11,1,198,14,1,66,276,1,55,167,1,0,342,1,0,205,1,17,317,9,27,187,6,329,13,1,197,16,1,270,46,26,160,41,30
2019-02-27T23:59:59Z,202,344,334,199,343,202,332,197,17,31,344,202,0,0,0,0,41,302,31,184,0,334,0,193,1,6,1,7,7,0,9,0,263,65,16,152,54,24,268,73,3,158,64,2,333,10,1,196,14,1,264,76,4,154,65,3,329,14,1,193,16,1,329,14,1,193,16,1,329,14,1,193,16,1,3,340,1,5,200,1,328,15,1,192,17,1,328,15,1,192,17,1,62,281,1,49,169,1,0,343,1,0,202,1,18,316,10,25,186,7,335,8,1,197,14,1,272,43,28,160,38,31
2019-02-28T23:59:58Z,203,344,334,200,343,203,331,197,17,31,344,203,0,0,0,0,44,299,35,180,0,334,0,194,0,6,0,7,6,0,8,0,263,65,16,151,54,25,268,73,3,156,65,2,336,7,1,199,12,1,271,69,4,158,62,3,334,9,1,198,12,1,334,9,1,198,12,1,332,9,3,197,12,3,4,338,2,6,201,2,332,11,1,196,14,1,333,10,1,197,14,1,63,280,1,52,167,1,0,343,1,0,203,1,20,315,9,28,184,6,331,12,1,196,14,1,272,46,25,159,42,29
2019-03-01T23:59:59Z,208,350,341,205,349,208,340,204,21,34,350,208,0,0,0,0,43,306,33,187,0,340,0,199,0,7,0,8,7,0,9,0,262,66,22,150,58,30,268,79,3,157,72,2,337,12,1,200,16,1,270,77,3,156,69,2,339,9,2,202,16,2,338,10,2,201,16,2,338,10,2,201,16,2,3,345,2,4,206,2,340,9,1,202,16,1,340,8,2,203,16,2,67,281,2,56,171,2,1,348,1,1,208,1,23,319,8,31,189,6,341,7,2,203,16,2,272,48,29,161,44,34
2019-03-02T23:59:59Z,205,346,336,202,345,205,335,201,20,32,346,205,0,0,0,0,41,304,31,186,0,336,0,196,0,6,0,7,6,0,7,0,261,66,19,152,58,26,262,81,3,155,69,2,335,10,1,199,15,1,265,78,3,158,66,2,335,10,1,199,14,1,335,10,1,199,14,1,336,9,1,200,14,1,2,343,1,3,204,1,335,10,1,199,16,1,335,10,1,199,16,1,68,277,1,54,169,1,0,345,1,0,205,1,20,319,7,26,191,6,332,13,1,197,18,1,269,46,30,159,44,31
2019-03-03T23:59:59Z,207,351,342,204,350,207,340,202,23,37,351,207,0,0,0,0,41,309,31,188,0,341,0,198,0,5,0,6,5,0,7,0,266,61,24,152,55,32,270,77,4,156,71,3,338,11,2,199,17,2,271,77,3,156,68,2,338,11,2,200,17,2,337,12,2,199,17,2,338,11,2,200,17,2,2,347,2,3,206,2,337,12,2,199,18,2,337,13,1,199,18,1,69,281,1,58,169,1,0,350,1,0,207,1,22,319,10,30,188,8,339,10,2,201,18,2,276,43,31,162,39,35
2019-03-04T23:59:59Z,209,349,338,206,348,209,336,204,21,36,349,209,0,0,0,0,44,304,34,188,0,339,0,200,0,5,0,6,5,0,7,0,261,68,20,151,57,30,265,80,4,156,70,3,335,13,1,201,18,1,267,78,4,157,70,3,336,11,2,202,17,2,336,11,2,202,17,2,336,11,2,202,17,2,3,345,1,4,208,1,336,11,2,202,18,2,336,12,1,202,18,1,69,279,1,58,170,1,0,348,1,0,209,1,21,318,10,30,189,8,333,15,1,200,19,1,272,45,31,162,41,35
2019-03-05T23:59:58Z,204,347,336,201,345,204,334,199,18,32,347,204,0,0,0,0,40,306,32,185,0,338,0,196,0,6,0,7,6,0,7,0,264,67,16,152,55,25,266,77,4,156,65,3,332,14,1,196,15,1,264,79,4,153,66,3,333,13,1,196,15,1,334,12,1,197,14,1,333,13,1,196,15,1,2,344,1,3,203,1,334,12,1,197,16,1,334,11,2,198,16,2,63,282,2,53,168,2,0,345,2,0,204,2,19,320,8,27,186,7,332,14,1,195,17,1,274,43,29,161,38,31
2019-03-06T23:59:59Z,206,350,339,203,347,205,336,200,22,34,350,206,0,0,0,0,43,306,32,186,0,341,0,198,0,5,0,6,5,0,7,0,265,63,22,153,52,29,270,76,4,159,65,3,336,13,1,199,16,1,270,75,5,158,64,4,338,9,3,200,14,3,338,9,3,200,14,3,338,10,2,200,14,2,2,345,3,3,204,3,334,13,3,197,17,3,334,14,2,197,17,2,70,278,2,55,167,2,0,348,2,0,205,2,23,315,12,30,185,9,339,9,2,201,15,2,275,42,32,163,37,33
2019-03-07T23:59:59Z,204,346,335,201,345,204,333,199,21,38,346,204,0,0,0,0,43,302,33,183,0,336,0,196,0,5,0,6,5,0,7,0,263,64,19,152,55,28,267,75,4,157,67,3,334,11,1,199,16,1,265,76,5,156,67,4,333,12,1,198,16,1,332,13,1,197,16,1,332,13,1,197,16,1,3,342,1,4,203,1,332,12,2,197,18,2,332,13,1,197,18,1,64,281,1,55,168,1,0,345,1,0,204,1,21,315,10,29,184,9,330,15,1,195,19,1,273,43,29,161,39,32
2019-03-08T23:59:59Z,203,342,331,200,341,203,327,197,20,34,342,203,0,0,0,0,39,302,31,184,0,333,0,195,0,5,0,6,5,0,7,0,264,59,19,153,50,28,266,72,4,157,63,3,328,13,1,196,15,1,265,73,4,156,63,3,328,13,1,196,16,1,328,13,1,196,16,2,327,14,1,195,16,1,2,339,1,4,202,1,326,15,1,195,17,1,327,14,1,196,17,1,61,280,1,53,167,1,0,341,1,0,203,1,20,312,10,28,184,9,331,10,1,198,15,1,273,38,30,162,35,34
2019-03-09T23:59:59Z,209,354,343,206,353,209,341,204,35,41,354,209,0,0,0,0,45,308,34,187,0,345,0,201,0,5,0,7,5,0,7,0,254,66,34,151,58,35,259,91,4,156,74,3,342,11,1,203,16,1,262,88,4,158,70,3,344,8,2,205,15,2,343,9,2,204,15,2,345,8,1,205,15,1,2,350,2,5,208,2,343,10,1,204,16,1,343,10,1,204,16,1,83,270,1,63,168,1,0,353,1,0,209,1,35,310,9,35,187,8,341,12,1,202,17,1,265,44,44,162,39,40
2019-03-10T23:59:59Z,208,350,338,205,348,208,336,203,32,44,350,208,0,0,0,0,42,307,32,189,0,341,0,200,0,5,0,6,5,0,7,0,254,65,31,149,55,38,261,85,4,155,74,3,336,13,1,201,16,1,255,91,4,152,75,3,332,17,1,199,21,1,327,22,1,196,23,1,330,19,1,200,22,1,2,347,1,4,207,1,336,13,1,202,19,1,337,11,2,202,17,2,72,276,2,62,170,2,0,348,2,0,208,2,27,316,7,35,187,6,326,23,1,197,29,1,264,44,41,157,38,42
2019-03-11T23:59:59Z,222,380,368,219,379,222,366,217,45,49,380,222,0,0,0,0,44,335,33,202,0,370,0,214,0,6,0,7,6,0,8,0,270,68,42,159,61,40,272,104,4,162,82,3,363,16,1,214,21,1,270,106,4,159,83,3,355,24,1,210,29,1,356,23,1,211,28,1,356,23,1,212,28,1,2,377,1,4,221,1,356,23,1,210,29,1,363,16,1,214,23,1,92,287,1,68,176,1,1,378,1,1,222,1,40,330,10,39,197,8,350,29,1,207,33,1,277,47,55,165,44,46
2019-03-12T23:59:59Z,224,372,359,220,371,224,355,218,39,49,372,224,0,0,0,0,48,323,33,201,0,363,0,216,0,5,0,7,5,0,8,0,260,76,36,155,63,41,264,104,4,160,85,3,353,18,1,214,25,1,260,108,4,157,87,3,350,21,1,215,27,1,351,20,1,213,27,1,354,17,1,215,21,1,2,368,2,5,223,2,355,16,1,215,20,1,357,14,1,217,19,1,85,286,1,68,179,1,0,371,1,0,224,1,34,329,9,39,200,8,346,25,1,213,36,1,271,51,49,165,46,47
2019-03-13T23:59:59Z,239,407,395,236,406,239,393,234,67,63,407,239,0,0,0,0,51,355,35,215,0,398,0,231,0,6,0,9,6,0,10,0,266,78,63,157,69,53,268,134,5,160,99,4,381,25,1,227,31,1,271,131,5,163,97,4,376,30,1,225,32,1,377,29,1,229,34,1,381,25,1,227,28,1,3,401,3,7,237,2,383,22,2,227,28,2,388,18,1,230,23,1,113,291,3,81,184,2,0,404,3,0,238,2,46,345,16,43,207,13,364,41,2,223,45,2,278,62,66,169,59,50
2019-03-14T23:59:59Z,233,402,390,230,400,232,388,228,70,61,402,233,0,0,0,0,50,351,35,209,0,393,0,225,0,6,0,8,6,0,9,0,262,76,64,158,66,51,266,131,5,162,93,4,375,25,2,223,29,2,271,126,5,165,90,4,374,26,2,222,28,2,375,26,1,222,29,1,376,24,2,224,30,3,2,396,4,5,231,3,383,18,1,226,24,1,383,18,1,224,21,1,113,286,3,77,177,2,0,399,3,0,232,2,54,333,15,44,200,12,369,31,2,219,35,2,270,63,68,165,56,48
2019-03-15T23:59:58Z,230,396,384,227,395,230,382,225,58,55,396,230,0,0,0,0,49,346,35,208,0,387,0,222,0,6,0,9,6,0,10,0,262,76,58,156,62,50,270,122,4,166,89,3,376,19,1,222,26,1,267,124,5,162,90,4,372,22,2,221,27,2,368,26,2,221,30,2,376,19,1,225,27,1,3,390,3,7,228,2,371,23,2,221,29,2,380,15,1,224,20,1,107,286,3,78,179,2,0,393,3,0,229,2,40,339,17,37,201,14,354,41,1,213,42,1,274,56,65,166,51,49
2019-03-16T23:59:59Z,229,390,378,226,389,229,375,223,64,60,390,229,0,0,0,0,45,344,34,206,0,381,0,221,0,5,0,7,5,0,8,0,264,71,55,157,62,48,266,119,5,161,90,4,368,20,2,223,29,2,270,116,4,164,86,3,353,36,1,214,35,1,362,27,1,220,30,1,374,15,1,224,20,1,2,385,3,5,227,2,368,21,1,222,27,1,375,14,1,223,22,1,100,287,3,77,180,2,0,386,4,0,228,3,46,331,13,42,196,11,358,31,1,216,34,1,272,55,62,164,50,48
2019-03-17T23:59:59Z,233,401,390,230,400,233,389,229,65,58,401,233,0,0,0,0,46,354,34,212,0,391,0,225,0,5,0,8,5,0,8,0,261,72,68,153,65,54,270,127,4,163,95,3,377,23,1,224,34,1,276,121,4,165,93,3,371,29,1,220,36,1,378,21,2,225,31,2,385,14,2,227,23,2,2,395,4,7,231,3,382,18,1,226,27,1,388,12,1,227,23,1,112,286,3,78,178,2,0,398,3,0,232,2,52,333,16,46,201,12,362,38,1,217,41,1,278,54,68,168,52,50
2019-03-18T23:59:59Z,228,393,381,225,391,228,379,223,66,58,393,228,0,0,0,0,41,351,30,208,0,383,0,219,0,5,0,8,5,0,9,0,262,67,64,157,62,53,269,119,5,162,86,4,376,15,2,223,22,2,269,120,4,161,88,3,365,26,2,216,32,2,358,33,2,212,33,2,370,21,2,217,25,2,2,387,4,6,226,3,371,20,2,221,27,2,378,13,2,222,21,2,101,288,4,72,178,3,0,389,4,0,227,3,46,332,15,39,200,12,353,39,1,212,41,1,274,51,67,167,48,49
2019-03-19T23:59:59Z,225,385,374,222,384,225,372,220,61,56,385,225,0,0,0,0,42,342,31,206,0,376,0,217,0,5,0,7,5,0,8,0,263,71,51,155,65,44,262,119,4,154,90,3,359,25,1,213,29,1,262,118,5,157,87,4,349,35,1,209,36,1,350,34,1,211,40,1,366,18,1,217,25,1,2,380,3,5,223,2,363,21,1,217,29,1,372,12,1,219,24,1,96,286,3,73,180,2,0,382,3,0,224,2,41,331,13,38,200,10,346,38,1,206,43,1,273,49,62,164,46,48
2019-03-20T23:59:59Z,226,386,377,224,384,226,374,222,62,55,386,226,0,0,0,0,44,341,32,204,0,377,0,218,0,5,0,7,5,0,8,0,263,68,55,157,61,45,264,118,4,159,88,3,358,27,1,215,30,1,266,116,4,160,83,3,359,26,1,215,30,1,346,39,1,209,37,1,360,25,1,218,30,1,2,381,3,4,224,2,353,32,1,213,37,1,368,17,1,219,30,1,101,282,3,74,177,2,0,383,3,0,225,2,42,331,13,36,198,12,350,35,1,211,39,1,273,50,62,164,47,47
2019-03-21T23:59:59Z,230,387,376,227,385,230,374,225,62,59,387,230,0,0,0,0,42,344,31,209,0,377,0,222,0,5,0,8,5,0,9,0,263,71,53,158,68,48,265,117,5,161,93,4,363,22,2,219,29,2,266,117,4,159,90,3,353,33,1,213,35,1,346,40,1,210,42,1,365,21,1,219,26,1,2,382,3,5,228,2,355,31,1,214,37,1,371,15,1,223,24,1,103,281,3,78,178,2,0,383,4,0,229,3,40,332,15,40,203,12,344,42,1,211,47,1,273,54,59,167,51,49
2019-03-22T23:59:59Z,223,383,372,220,381,223,370,218,61,54,383,223,0,0,0,0,40,342,29,203,0,374,0,215,0,5,0,7,5,0,8,0,265,67,51,157,62,42,260,119,4,154,89,3,353,29,1,211,32,1,266,113,4,158,83,3,345,37,1,205,34,1,349,33,1,209,36,1,359,23,1,214,28,1,2,378,3,4,221,2,355,27,1,216,32,1,369,12,2,217,22,2,102,277,4,76,171,3,0,379,4,0,222,3,40,328,15,37,194,13,342,40,1,204,40,1,270,51,61,161,47,47
2019-03-23T23:59:59Z,226,388,377,223,384,225,375,221,63,55,388,226,0,0,0,0,40,347,29,206,0,378,0,218,0,5,0,8,5,0,9,0,263,68,57,159,64,49,265,118,5,162,88,4,359,27,2,214,33,2,268,116,4,162,86,3,344,39,5,209,40,3,348,35,5,208,37,3,355,30,3,215,33,3,3,379,6,6,223,3,348,35,5,212,37,3,372,14,2,219,24,2,103,281,4,75,176,3,0,384,4,0,225,3,45,326,17,37,198,14,339,48,1,206,47,1,272,53,62,166,48,46
2019-03-24T23:59:59Z,230,390,380,227,388,230,378,225,64,58,390,230,0,0,0,0,44,345,31,208,0,381,0,222,0,6,0,9,6,0,10,0,269,69,52,164,63,47,263,123,4,159,95,3,360,29,1,216,35,1,266,120,4,159,91,3,345,44,1,207,41,1,355,34,1,216,34,1,362,27,1,215,32,1,3,384,3,6,228,2,356,33,1,212,37,1,371,18,1,219,27,1,108,279,3,78,173,2,0,387,3,0,229,2,39,337,14,36,207,11,344,45,1,207,44,1,271,57,61,164,54,47